Weather History for KWWR - February, 2012

Change the Weather History Date:

Thursday, February 2, 2012

  Actual Average (KGAG) Record (KGAG)
Temperature  
Mean Temperature 48 °F -  
Max Temperature 60 °F 46 °F 74 °F (1962)
Min Temperature 35 °F 20 °F -7 °F (1951)
Degree Days  
Heating Degree Days 18    
Moisture  
Dew Point 36 °F    
Average Humidity 63    
Maximum Humidity 94    
Minimum Humidity 41    
Precipitation  
Precipitation 0.67 in - - ()
Sea Level Pressure  
Sea Level Pressure 30.07 in    
Wind  
Wind Speed 9 mph (SE)    
Max Wind Speed 23 mph    
Max Gust Speed 30 mph    
Visibility 10 miles    
Events Rain , Thunderstorm    
Averages and records for this station are not official NWS values.
T = Trace of Precipitation, MM = Missing Value Source: NWS Daily Summary

Daily Weather History Graph

Daily Weather History Graph

Search for Another Location

Airport or City:

Trip Planner

Search our weather history database for the weather conditions in past years. The results will help you decide how hot, cold, wet, or windy it might be!

Date:

Astronomy

Feb. 02, 2012 Rise Set
Actual Time 7:39 AM CST 6:04 PM CST
Civil Twilight 7:12 AM CST 6:31 PM CST
Nautical Twilight 6:41 AM CST 7:02 PM CST
Astronomical Twilight 6:10 AM CST 7:33 PM CST
Moon 1:21 PM CST (2/2) 3:19 AM CST (2/2)
Length of Visible Light 11h 19m
Length of Day
10h 25m
Waxing Gibbous, 74% of the Moon is Illuminated
Feb 2
Waxing Gibbous
Feb 7
Full
Feb 14
Last Quarter
Feb 21
New
Feb 29
First Quarter

Hourly Weather History & Observations

Time (CST) Temp. Windchill Dew Point Humidity Pressure Visibility Wind Dir Wind Speed Gust Speed Precip Events Conditions
12:15 AM 42.8 °F 38.0 °F 30.2 °F 61% 30.17 in 10.0 mi SSE 8.1 mph - N/A   Clear
12:35 AM 42.8 °F 37.5 °F 30.2 °F 61% 30.18 in 10.0 mi SSE 9.2 mph - N/A   Clear
12:55 AM 41.0 °F 35.8 °F 30.2 °F 65% 30.18 in 10.0 mi SSE 8.1 mph - N/A   Clear
1:15 AM 42.8 °F 38.6 °F 30.2 °F 61% 30.18 in 10.0 mi SSE 6.9 mph - N/A   Clear
1:35 AM 41.0 °F - 30.2 °F 65% 30.18 in 10.0 mi Calm Calm - N/A   Clear
1:55 AM 41.0 °F 37.1 °F 32.0 °F 70% 30.18 in 10.0 mi SSE 5.8 mph - N/A   Clear
2:15 AM 46.4 °F 41.9 °F 32.0 °F 57% 30.18 in 10.0 mi SSE 9.2 mph - N/A   Clear
2:35 AM 44.6 °F 39.2 °F 32.0 °F 61% 30.18 in 10.0 mi SSE 10.4 mph - N/A   Clear
2:55 AM 42.8 °F 38.6 °F 32.0 °F 66% 30.19 in 10.0 mi South 6.9 mph - N/A   Clear
3:15 AM 42.8 °F 41.1 °F 32.0 °F 66% 30.18 in 10.0 mi South 3.5 mph - N/A   Clear
3:55 AM 37.4 °F 33.8 °F 30.2 °F 75% 30.18 in 10.0 mi WSW 4.6 mph - N/A   Clear
4:15 AM 35.6 °F 32.8 °F 30.2 °F 81% 30.18 in 10.0 mi WSW 3.5 mph - N/A   Clear
4:35 AM 37.4 °F 34.9 °F 32.0 °F 81% 30.18 in 10.0 mi WSW 3.5 mph - N/A   Clear
4:55 AM 37.4 °F - 32.0 °F 81% 30.18 in 10.0 mi Calm Calm - N/A   Clear
5:15 AM 41.0 °F 39.0 °F 32.0 °F 70% 30.17 in 10.0 mi SW 3.5 mph - N/A   Clear
5:35 AM 37.4 °F - 32.0 °F 81% 30.16 in 10.0 mi Calm Calm - N/A   Clear
5:55 AM 37.4 °F - 32.0 °F 81% 30.16 in 10.0 mi Calm Calm - N/A   Clear
6:15 AM 41.0 °F - 32.0 °F 70% 30.16 in 10.0 mi Calm Calm - N/A   Clear
6:55 AM 41.0 °F 37.1 °F 32.0 °F 70% 30.16 in 10.0 mi East 5.8 mph - N/A   Clear
7:15 AM 39.2 °F 35.0 °F 32.0 °F 75% 30.16 in 10.0 mi East 5.8 mph - N/A   Clear
7:35 AM 37.4 °F 31.4 °F 32.0 °F 81% 30.15 in 10.0 mi ENE 8.1 mph - N/A   Clear
7:55 AM 39.2 °F 35.0 °F 32.0 °F 75% 30.15 in 10.0 mi ENE 5.8 mph - N/A   Clear
8:15 AM 37.4 °F 34.9 °F 32.0 °F 81% 30.15 in 10.0 mi ENE 3.5 mph - N/A   Clear
8:35 AM 39.2 °F 37.0 °F 32.0 °F 75% 30.16 in 10.0 mi East 3.5 mph - N/A   Clear
8:55 AM 41.0 °F 37.1 °F 32.0 °F 70% 30.15 in 10.0 mi East 5.8 mph - N/A   Clear
9:15 AM 44.6 °F 41.4 °F 32.0 °F 61% 30.15 in 10.0 mi East 5.8 mph - N/A   Clear
9:35 AM 46.4 °F 42.9 °F 32.0 °F 57% 30.15 in 10.0 mi ESE 6.9 mph - N/A   Clear
9:55 AM 51.8 °F - 32.0 °F 47% 30.15 in 10.0 mi SE 12.7 mph - N/A   Clear
10:15 AM 51.8 °F - 32.0 °F 47% 30.15 in 10.0 mi SE 9.2 mph - N/A   Clear
10:35 AM 51.8 °F - 32.0 °F 47% 30.14 in 10.0 mi ESE 12.7 mph - N/A   Clear
10:55 AM 53.6 °F - 32.0 °F 44% 30.13 in 10.0 mi ESE 10.4 mph - N/A   Clear
11:15 AM 55.4 °F - 32.0 °F 41% 30.12 in 10.0 mi ESE 12.7 mph - N/A   Clear
11:35 AM 53.6 °F - 32.0 °F 44% 30.12 in 10.0 mi ESE 13.8 mph - N/A   Clear
11:55 AM 55.4 °F - 32.0 °F 41% 30.11 in 10.0 mi ESE 13.8 mph 17.3 mph N/A   Clear
12:15 PM 55.4 °F - 33.8 °F 44% 30.10 in 10.0 mi East 15.0 mph - N/A   Clear
12:35 PM 59.0 °F - 35.6 °F 42% 30.09 in 10.0 mi ESE 13.8 mph - N/A   Clear
12:55 PM 59.0 °F - 35.6 °F 42% 30.07 in 10.0 mi ESE 16.1 mph - N/A   Clear
1:15 PM 59.0 °F - 37.4 °F 45% 30.05 in 10.0 mi SE 17.3 mph 20.7 mph N/A   Clear
1:55 PM 60.8 °F - 39.2 °F 45% 30.02 in 10.0 mi SE 18.4 mph - N/A   Clear
2:15 PM 59.0 °F - 37.4 °F 45% 30.01 in 10.0 mi ESE 16.1 mph - N/A   Mostly Cloudy
2:55 PM 60.8 °F - 37.4 °F 42% 29.98 in 10.0 mi ESE 17.3 mph 21.9 mph N/A   Scattered Clouds
3:15 PM 60.8 °F - 37.4 °F 42% 29.97 in 10.0 mi ESE 17.3 mph 23.0 mph N/A   Clear
3:35 PM 59.0 °F - 37.4 °F 45% 29.95 in 10.0 mi East 18.4 mph 25.3 mph N/A   Scattered Clouds
3:55 PM 60.8 °F - 39.2 °F 45% 29.94 in 10.0 mi ESE 20.7 mph - N/A Thunderstorm Overcast
4:15 PM 59.0 °F - 41.0 °F 51% 29.93 in 10.0 mi ESE 23.0 mph 29.9 mph N/A   Scattered Clouds
4:35 PM 59.0 °F - 41.0 °F 51% 29.93 in 10.0 mi ESE 21.9 mph 27.6 mph N/A   Mostly Cloudy
4:55 PM 57.2 °F - 42.8 °F 59% 29.92 in 10.0 mi ESE 20.7 mph 26.5 mph N/A Rain , Thunderstorm Rain
5:15 PM 55.4 °F - 42.8 °F 63% 29.92 in 10.0 mi ESE 21.9 mph 29.9 mph N/A Thunderstorm Mostly Cloudy
5:35 PM 55.4 °F - 44.6 °F 67% 29.93 in 10.0 mi ESE 19.6 mph 32.2 mph N/A   Mostly Cloudy
5:55 PM 53.6 °F - 46.4 °F 77% 29.92 in 10.0 mi ESE 20.7 mph 26.5 mph N/A Rain Light Rain
6:15 PM 53.6 °F - 46.4 °F 77% 29.94 in 10.0 mi ESE 17.3 mph 23.0 mph N/A Rain Light Rain
6:35 PM 53.6 °F - 48.2 °F 82% 29.94 in 10.0 mi ESE 13.8 mph 20.7 mph N/A Thunderstorm Overcast
6:55 PM 53.6 °F - 48.2 °F 82% 29.93 in 10.0 mi ESE 17.3 mph 20.7 mph N/A   Overcast
7:15 PM 53.6 °F - 48.2 °F 82% 29.92 in 10.0 mi ESE 16.1 mph - N/A Thunderstorm Thunderstorm
7:35 PM 53.6 °F - 48.2 °F 82% 29.90 in 10.0 mi East 15.0 mph 21.9 mph N/A Thunderstorm Unknown
7:55 PM 53.6 °F - 50.0 °F 88% 29.93 in 10.0 mi West 8.1 mph - N/A Rain , Thunderstorm Light Thunderstorms and Rain
8:15 PM 53.6 °F - 48.2 °F 82% 29.93 in 5.0 mi WSW 10.4 mph - 0.09 in Rain , Thunderstorm Heavy Thunderstorms and Rain
8:55 PM 51.8 °F - 50.0 °F 94% 29.90 in 10.0 mi SSE 11.5 mph 28.8 mph 0.67 in Rain , Thunderstorm Light Thunderstorms and Rain
9:15 PM 53.6 °F - 50.0 °F 88% 29.96 in 10.0 mi SE 11.5 mph - N/A Rain Light Rain
9:35 PM 55.4 °F - 51.8 °F 88% 29.90 in 10.0 mi SSE 10.4 mph - 0.01 in Rain , Thunderstorm Light Thunderstorms and Rain
9:55 PM 55.4 °F - 51.8 °F 88% 29.88 in 4.0 mi ESE 4.6 mph - 0.12 in Rain , Thunderstorm Heavy Thunderstorms and Rain
10:15 PM 55.4 °F - 53.6 °F 94% 29.90 in 1.2 mi West 18.4 mph 21.9 mph 0.46 in Rain , Thunderstorm Heavy Thunderstorms and Rain
10:35 PM 55.4 °F - 53.6 °F 94% 29.86 in 2.0 mi SSE 10.4 mph - 0.94 in Rain , Thunderstorm Heavy Thunderstorms and Rain
10:55 PM 57.2 °F - 53.6 °F 88% 29.85 in 10.0 mi South 18.4 mph - 1.00 in Rain , Thunderstorm Light Thunderstorms and Rain
11:15 PM 53.6 °F - 51.8 °F 94% 29.85 in 2.0 mi WNW 19.6 mph 29.9 mph 0.29 in Rain , Thunderstorm Heavy Thunderstorms and Rain
11:55 PM 46.4 °F 38.3 °F 46.4 °F 100% 29.91 in 1.2 mi NW 23.0 mph 32.2 mph 1.33 in Thunderstorm Unknown